Time,TemperatureF,DewpointF,PressureIn,WindDirection,WindDirectionDegrees,WindSpeedMPH,WindSpeedGustMPH,Humidity,HourlyPrecipIn,Conditions,Clouds,dailyrainin,SoftwareType,DateUTC
2013-08-18 00:08:00,60.8,58.0,30.21,SW,228,0.0,-999.0,90,-99.99,,,0.00,weatherlink.com 1.10,2013-08-18 04:08:00,
2013-08-18 00:23:00,60.9,58.0,30.21,SW,228,0.0,-999.0,91,-99.99,,,0.00,weatherlink.com 1.10,2013-08-18 04:23:00,
2013-08-18 00:38:00,60.7,58.0,30.21,SW,228,0.0,-999.0,91,-99.99,,,0.00,weatherlink.com 1.10,2013-08-18 04:38:00,
2013-08-18 00:53:00,60.5,58.0,30.21,SW,228,0.0,-999.0,91,-99.99,,,0.00,weatherlink.com 1.10,2013-08-18 04:53:00,
2013-08-18 01:08:00,60.5,58.0,30.21,SW,228,0.0,-999.0,91,-99.99,,,0.00,weatherlink.com 1.10,2013-08-18 05:08:00,
2013-08-18 01:23:00,60.5,58.0,30.21,SW,228,0.0,-999.0,91,-99.99,,,0.00,weatherlink.com 1.10,2013-08-18 05:23:00,
2013-08-18 01:38:00,60.3,58.0,30.20,SW,228,0.0,-999.0,92,-99.99,,,0.00,weatherlink.com 1.10,2013-08-18 05:38:00,
2013-08-18 01:53:00,60.1,58.0,30.21,SW,228,0.0,-999.0,92,-99.99,,,0.00,weatherlink.com 1.10,2013-08-18 05:53:00,
2013-08-18 02:08:00,59.8,58.0,30.20,SW,228,0.0,-999.0,92,-99.99,,,0.00,weatherlink.com 1.10,2013-08-18 06:08:00,
2013-08-18 02:23:00,59.5,57.0,30.21,SW,228,0.0,-999.0,92,-99.99,,,0.00,weatherlink.com 1.10,2013-08-18 06:23:00,
2013-08-18 02:38:00,59.2,57.0,30.21,SW,228,0.0,-999.0,92,-99.99,,,0.00,weatherlink.com 1.10,2013-08-18 06:38:00,
2013-08-18 02:53:00,59.0,57.0,30.20,SW,228,0.0,-999.0,93,-99.99,,,0.00,weatherlink.com 1.10,2013-08-18 06:53:00,
2013-08-18 03:08:00,58.8,57.0,30.21,SW,229,0.0,-999.0,93,-99.99,,,0.00,weatherlink.com 1.10,2013-08-18 07:08:00,
2013-08-18 03:23:00,58.7,57.0,30.20,SW,228,0.0,-999.0,93,-99.99,,,0.00,weatherlink.com 1.10,2013-08-18 07:23:00,
2013-08-18 03:38:00,58.6,57.0,30.20,SW,228,0.0,-999.0,93,-99.99,,,0.00,weatherlink.com 1.10,2013-08-18 07:38:00,
2013-08-18 03:53:00,58.5,57.0,30.20,SW,228,0.0,-999.0,93,-99.99,,,0.00,weatherlink.com 1.10,2013-08-18 07:53:00,
2013-08-18 04:08:00,58.4,57.0,30.20,SW,228,0.0,-999.0,94,-99.99,,,0.00,weatherlink.com 1.10,2013-08-18 08:08:00,
2013-08-18 04:23:00,58.4,57.0,30.20,SW,228,0.0,-999.0,94,-99.99,,,0.00,weatherlink.com 1.10,2013-08-18 08:23:00,
2013-08-18 04:38:00,58.9,57.0,30.19,SW,228,0.0,-999.0,94,-99.99,,,0.00,weatherlink.com 1.10,2013-08-18 08:38:00,
2013-08-18 04:53:00,59.2,58.0,30.19,SW,228,0.0,-999.0,94,-99.99,,,0.00,weatherlink.com 1.10,2013-08-18 08:53:00,
2013-08-18 05:08:00,59.5,58.0,30.19,SW,228,0.0,-999.0,94,-99.99,,,0.00,weatherlink.com 1.10,2013-08-18 09:08:00,
2013-08-18 05:23:00,59.4,58.0,30.20,SW,228,0.0,-999.0,94,-99.99,,,0.00,weatherlink.com 1.10,2013-08-18 09:23:00,
2013-08-18 05:38:00,59.0,57.0,30.20,SW,228,0.0,-999.0,94,-99.99,,,0.00,weatherlink.com 1.10,2013-08-18 09:38:00,
2013-08-18 05:53:00,59.0,57.0,30.20,SW,228,0.0,-999.0,94,-99.99,,,0.00,weatherlink.com 1.10,2013-08-18 09:53:00,
2013-08-18 06:08:00,58.7,57.0,30.21,SW,228,0.0,-999.0,94,-99.99,,,0.00,weatherlink.com 1.10,2013-08-18 10:08:00,
2013-08-18 06:23:00,58.8,57.0,30.21,SW,228,0.0,-999.0,94,-99.99,,,0.00,weatherlink.com 1.10,2013-08-18 10:23:00,
2013-08-18 06:38:00,59.0,58.0,30.21,SW,228,0.0,-999.0,95,-99.99,,,0.00,weatherlink.com 1.10,2013-08-18 10:38:00,
2013-08-18 06:53:00,59.3,58.0,30.21,SW,229,0.0,-999.0,95,-99.99,,,0.00,weatherlink.com 1.10,2013-08-18 10:53:00,
2013-08-18 07:08:00,59.0,57.0,30.22,SW,228,0.0,-999.0,94,-99.99,,,0.00,weatherlink.com 1.10,2013-08-18 11:08:00,
2013-08-18 07:23:00,-999.0,-99.9,30.22,North,-999,-999.0,-999.0,-999,-99.99,,,0.00,weatherlink.com 1.10,2013-08-18 11:23:00,
2013-08-18 07:38:00,-999.0,-99.9,30.22,North,-999,-999.0,-999.0,-999,-99.99,,,0.00,weatherlink.com 1.10,2013-08-18 11:38:00,
2013-08-18 07:53:00,-999.0,-99.9,30.22,North,-999,-999.0,-999.0,-999,-99.99,,,0.00,weatherlink.com 1.10,2013-08-18 11:53:00,
2013-08-18 08:08:00,-999.0,-99.9,30.22,North,-999,-999.0,-999.0,-999,-99.99,,,0.00,weatherlink.com 1.10,2013-08-18 12:08:00,
2013-08-18 08:23:00,-999.0,-99.9,30.23,North,-999,-999.0,-999.0,-999,-99.99,,,0.00,weatherlink.com 1.10,2013-08-18 12:23:00,
2013-08-18 08:38:00,61.8,60.0,30.23,SW,228,0.0,-999.0,95,-99.99,,,0.00,weatherlink.com 1.10,2013-08-18 12:38:00,
2013-08-18 08:53:00,62.6,61.0,30.24,SW,228,0.0,-999.0,94,-99.99,,,0.00,weatherlink.com 1.10,2013-08-18 12:53:00,
2013-08-18 09:08:00,63.5,62.0,30.24,SW,228,0.0,-999.0,94,-99.99,,,0.00,weatherlink.com 1.10,2013-08-18 13:08:00,
2013-08-18 09:23:00,64.8,63.0,30.23,East,91,0.0,-999.0,93,-99.99,,,0.00,weatherlink.com 1.10,2013-08-18 13:23:00,
2013-08-18 09:38:00,67.1,64.0,30.23,East,99,0.0,-999.0,90,-99.99,,,0.00,weatherlink.com 1.10,2013-08-18 13:38:00,
2013-08-18 09:53:00,68.9,65.0,30.23,NE,39,0.0,-999.0,88,-99.99,,,0.00,weatherlink.com 1.10,2013-08-18 13:53:00,
2013-08-18 10:08:00,70.9,67.0,30.23,ENE,78,0.0,-999.0,86,-99.99,,,0.00,weatherlink.com 1.10,2013-08-18 14:08:00,
2013-08-18 10:23:00,72.9,68.0,30.23,ENE,72,0.0,-999.0,83,-99.99,,,0.00,weatherlink.com 1.10,2013-08-18 14:23:00,
2013-08-18 10:38:00,73.3,67.0,30.23,ESE,102,0.0,-999.0,81,-99.99,,,0.00,weatherlink.com 1.10,2013-08-18 14:38:00,
2013-08-18 10:53:00,73.4,67.0,30.23,East,96,0.0,-999.0,79,-99.99,,,0.00,weatherlink.com 1.10,2013-08-18 14:53:00,
2013-08-18 11:08:00,74.5,65.0,30.23,NNE,32,0.0,-999.0,73,-99.99,,,0.00,weatherlink.com 1.10,2013-08-18 15:08:00,
2013-08-18 11:23:00,75.3,65.0,30.22,SE,134,0.0,-999.0,71,-99.99,,,0.00,weatherlink.com 1.10,2013-08-18 15:23:00,
2013-08-18 11:38:00,76.9,62.0,30.22,NE,53,0.0,-999.0,61,-99.99,,,0.00,weatherlink.com 1.10,2013-08-18 15:38:00,
2013-08-18 11:53:00,77.4,60.0,30.22,NNE,27,2.0,-999.0,56,-99.99,,,0.00,weatherlink.com 1.10,2013-08-18 15:53:00,
2013-08-18 12:08:00,77.4,62.0,30.21,SSW,212,0.0,-999.0,59,-99.99,,,0.00,weatherlink.com 1.10,2013-08-18 16:08:00,
2013-08-18 12:23:00,78.5,60.0,30.21,East,88,0.0,-999.0,53,-99.99,,,0.00,weatherlink.com 1.10,2013-08-18 16:23:00,
2013-08-18 12:38:00,77.8,60.0,30.21,ESE,113,0.0,-999.0,54,-99.99,,,0.00,weatherlink.com 1.10,2013-08-18 16:38:00,
2013-08-18 12:53:00,76.8,60.0,30.20,SE,142,0.0,-999.0,56,-99.99,,,0.00,weatherlink.com 1.10,2013-08-18 16:53:00,
2013-08-18 13:08:00,79.0,60.0,30.20,ENE,72,0.0,-999.0,52,-99.99,,,0.00,weatherlink.com 1.10,2013-08-18 17:08:00,
2013-08-18 13:23:00,79.1,60.0,30.20,East,89,0.0,-999.0,53,-99.99,,,0.00,weatherlink.com 1.10,2013-08-18 17:23:00,
2013-08-18 13:38:00,78.8,60.0,30.20,ESE,103,0.0,-999.0,53,-99.99,,,0.00,weatherlink.com 1.10,2013-08-18 17:38:00,
2013-08-18 13:53:00,78.1,60.0,30.19,East,90,1.0,-999.0,54,-99.99,,,0.00,weatherlink.com 1.10,2013-08-18 17:53:00,
2013-08-18 14:08:00,77.1,60.0,30.19,NE,34,0.0,-999.0,56,-99.99,,,0.00,weatherlink.com 1.10,2013-08-18 18:08:00,
2013-08-18 14:23:00,78.6,60.0,30.18,SSE,149,0.0,-999.0,53,-99.99,,,0.00,weatherlink.com 1.10,2013-08-18 18:23:00,
2013-08-18 14:38:00,80.2,61.0,30.18,ESE,105,0.0,-999.0,53,-99.99,,,0.00,weatherlink.com 1.10,2013-08-18 18:38:00,
2013-08-18 14:53:00,78.5,59.0,30.18,East,91,0.0,-999.0,52,-99.99,,,0.00,weatherlink.com 1.10,2013-08-18 18:53:00,
2013-08-18 15:08:00,77.7,61.0,30.18,SW,218,0.0,-999.0,57,-99.99,,,0.00,weatherlink.com 1.10,2013-08-18 19:08:00,
2013-08-18 15:23:00,78.0,60.0,30.17,NE,54,0.0,-999.0,54,-99.99,,,0.00,weatherlink.com 1.10,2013-08-18 19:23:00,
2013-08-18 15:38:00,79.7,60.0,30.16,SSW,203,0.0,-999.0,51,-99.99,,,0.00,weatherlink.com 1.10,2013-08-18 19:38:00,
2013-08-18 15:53:00,79.5,60.0,30.16,ENE,76,0.0,-999.0,51,-99.99,,,0.00,weatherlink.com 1.10,2013-08-18 19:53:00,
2013-08-18 16:08:00,79.3,61.0,30.16,SW,229,0.0,-999.0,54,-99.99,,,0.00,weatherlink.com 1.10,2013-08-18 20:08:00,
2013-08-18 16:23:00,79.6,59.0,30.15,East,91,2.0,-999.0,49,-99.99,,,0.00,weatherlink.com 1.10,2013-08-18 20:23:00,
2013-08-18 16:38:00,79.9,60.0,30.15,East,91,0.0,-999.0,50,-99.99,,,0.00,weatherlink.com 1.10,2013-08-18 20:38:00,
2013-08-18 16:53:00,79.6,59.0,30.15,ESE,105,0.0,-999.0,50,-99.99,,,0.00,weatherlink.com 1.10,2013-08-18 20:53:00,
2013-08-18 17:08:00,79.1,59.0,30.14,SE,125,0.0,-999.0,50,-99.99,,,0.00,weatherlink.com 1.10,2013-08-18 21:08:00,
2013-08-18 17:23:00,80.3,60.0,30.14,SSE,153,0.0,-999.0,50,-99.99,,,0.00,weatherlink.com 1.10,2013-08-18 21:23:00,
2013-08-18 17:38:00,80.5,60.0,30.14,SSE,163,0.0,-999.0,49,-99.99,,,0.00,weatherlink.com 1.10,2013-08-18 21:38:00,
2013-08-18 17:53:00,80.2,59.0,30.14,SE,135,0.0,-999.0,49,-99.99,,,0.00,weatherlink.com 1.10,2013-08-18 21:53:00,
2013-08-18 18:08:00,79.7,59.0,30.14,ESE,114,0.0,-999.0,50,-99.99,,,0.00,weatherlink.com 1.10,2013-08-18 22:08:00,
2013-08-18 18:23:00,79.2,59.0,30.14,SW,226,0.0,-999.0,51,-99.99,,,0.00,weatherlink.com 1.10,2013-08-18 22:23:00,
2013-08-18 18:38:00,79.1,59.0,30.14,East,96,0.0,-999.0,50,-99.99,,,0.00,weatherlink.com 1.10,2013-08-18 22:38:00,
2013-08-18 18:53:00,78.3,58.0,30.14,SE,136,0.0,-999.0,50,-99.99,,,0.00,weatherlink.com 1.10,2013-08-18 22:53:00,
2013-08-18 19:08:00,77.5,58.0,30.13,SE,136,0.0,-999.0,51,-99.99,,,0.00,weatherlink.com 1.10,2013-08-18 23:08:00,
2013-08-18 19:23:00,76.8,58.0,30.14,West,276,0.0,-999.0,53,-99.99,,,0.00,weatherlink.com 1.10,2013-08-18 23:23:00,
2013-08-18 19:38:00,76.2,59.0,30.14,ESE,119,0.0,-999.0,55,-99.99,,,0.00,weatherlink.com 1.10,2013-08-18 23:38:00,
2013-08-18 19:53:00,75.2,59.0,30.13,SSE,149,0.0,-999.0,57,-99.99,,,0.00,weatherlink.com 1.10,2013-08-18 23:53:00,
2013-08-18 20:08:00,74.6,59.0,30.13,SSE,150,0.0,-999.0,59,-99.99,,,0.00,weatherlink.com 1.10,2013-08-19 00:08:00,
2013-08-18 20:23:00,73.8,59.0,30.14,SSE,150,0.0,-999.0,60,-99.99,,,0.00,weatherlink.com 1.10,2013-08-19 00:23:00,
2013-08-18 20:38:00,73.0,59.0,30.14,SSE,149,0.0,-999.0,61,-99.99,,,0.00,weatherlink.com 1.10,2013-08-19 00:38:00,
2013-08-18 20:53:00,72.2,59.0,30.14,SSE,149,0.0,-999.0,63,-99.99,,,0.00,weatherlink.com 1.10,2013-08-19 00:53:00,
2013-08-18 21:08:00,71.4,59.0,30.14,SSE,149,0.0,-999.0,64,-99.99,,,0.00,weatherlink.com 1.10,2013-08-19 01:08:00,
2013-08-18 21:23:00,70.7,58.0,30.15,SSE,150,0.0,-999.0,65,-99.99,,,0.00,weatherlink.com 1.10,2013-08-19 01:23:00,
2013-08-18 21:38:00,70.0,58.0,30.15,SSE,149,0.0,-999.0,65,-99.99,,,0.00,weatherlink.com 1.10,2013-08-19 01:38:00,
2013-08-18 21:53:00,69.3,58.0,30.15,SSE,149,0.0,-999.0,67,-99.99,,,0.00,weatherlink.com 1.10,2013-08-19 01:53:00,
2013-08-18 22:08:00,68.6,58.0,30.15,SSE,149,0.0,-999.0,68,-99.99,,,0.00,weatherlink.com 1.10,2013-08-19 02:08:00,
2013-08-18 22:23:00,67.8,58.0,30.15,SSE,150,0.0,-999.0,70,-99.99,,,0.00,weatherlink.com 1.10,2013-08-19 02:23:00,
2013-08-18 22:38:00,67.1,58.0,30.15,SSE,149,0.0,-999.0,72,-99.99,,,0.00,weatherlink.com 1.10,2013-08-19 02:38:00,
2013-08-18 22:53:00,66.0,58.0,30.15,SSE,149,0.0,-999.0,74,-99.99,,,0.00,weatherlink.com 1.10,2013-08-19 02:53:00,
2013-08-18 23:08:00,65.0,57.0,30.15,SSE,150,0.0,-999.0,76,-99.99,,,0.00,weatherlink.com 1.10,2013-08-19 03:08:00,
2013-08-18 23:23:00,64.1,58.0,30.15,SSE,149,0.0,-999.0,81,-99.99,,,0.00,weatherlink.com 1.10,2013-08-19 03:23:00,
2013-08-18 23:38:00,63.3,58.0,30.14,SSE,150,0.0,-999.0,82,-99.99,,,0.00,weatherlink.com 1.10,2013-08-19 03:38:00,
2013-08-18 23:53:00,62.9,58.0,30.14,SSE,149,0.0,-999.0,83,-99.99,,,0.00,weatherlink.com 1.10,2013-08-19 03:53:00,